Weather Roundup
Issued by NWS Chicago, IL

Home | Current Version | Previous Version | Graphics & Text | Print | Product List | Glossary On
Versions: 1 2 3 4 5 6 7 8 9 10 11 12 13 14 15 16 17 18 19 20 21 22 23 24 25 26 27 28 29 30 31 32 33 34 35 36 37 38 39 40 41 42 43 44 45 46 47 48 49 50
000
NZUS59 KLOT 031612
HRRLOT

CHICAGO AREA WEATHER ROUNDUP
NATIONAL WEATHER SERVICE CHICAGO/ROMEOVILLE IL
1000 AM CST SAT DEC 03 2016

NOTE: "FAIR" INDICATES FEW OR NO CLOUDS BELOW 12,000 FEET WITH NO
SIGNIFICANT WEATHER AND/OR OBSTRUCTIONS TO VISIBILITY.

* THESE STATIONS ARE NOT UNDER NWS QUALITY CONTROL. THEY ALSO MAY NOT
  REPORT WEATHER SUCH AS PRECIPITATION OR FOG.

ILZ005-006-012>014-019>023-031700-
NORTHEAST ILLINOIS

CITY           SKY/WX    TMP DP  RH WIND       PRES   REMARKS
OHARE          CLOUDY    32  22  66 N5        30.33S WCI  27
MIDWAY         CLOUDY    34  21  59 W7        30.35R WCI  28
AURORA         CLOUDY    33  24  69 NW8       30.36R WCI  26
LANSING*       CLOUDY    33  26  73 NW5       30.36R WCI  29
JOLIET*        CLOUDY    34  25  69 NW5       30.37R WCI  30
WAUKEGAN       CLOUDY    33  24  69 N5        30.32S WCI  29
DUPAGE AIRPORT CLOUDY    32  22  66 W8        30.34R WCI  25
WHEELING       CLOUDY    32  22  66 NW7       30.34F WCI  26
KANKAKEE*      CLOUDY    34  26  72 W5        30.35F WCI  30
MORRIS*        CLOUDY    33  26  74 NW3       30.35R
LEWIS AIRPORT* CLOUDY    32  27  80 NW9       30.36R WCI  24
NORTHERLY ISL    N/A     34  22  61 NE7         N/A  WCI  28
$$

WIZ051-052-058>065-066-070>072-031700-
SOUTHEAST WISCONSIN

CITY           SKY/WX    TMP DP  RH WIND       PRES   REMARKS
MILWAUKEE      CLOUDY    33  23  66 NW7       30.33S WCI  27
KENOSHA*       CLOUDY    32  23  69 NW8       30.33S WCI  25
RACINE*        CLOUDY    32  22  66 W5        30.35R WCI  27
BURLINGTON     CLOUDY    31  23  71 NW3       30.32F
WAUKESHA       CLOUDY    28  21  74 NW8       30.33R WCI  20
WEST BEND      CLOUDY    32  25  74 NW8       30.31S WCI  25
$$

INZ001>003-010>013-019-020-031700-
NORTHWEST INDIANA

CITY           SKY/WX    TMP DP  RH WIND       PRES   REMARKS
GARY*          PTSUNNY   36  23  60 W3        30.35S
MICHIGAN CITY* NOT AVBL
RENSSELAER*    NOT AVBL
VALPARAISO     MOSUNNY   36  23  59 W3        30.34R
$$

LMZ740>746-031700-
SOUTHERN LAKE MICHIGAN

STATION/POSITION TIME  SKY/WX   TEMP WIND        PRES    VSBY
                                AIR  DIR/SP/G
                 (UTC)          (F)  (DEG/KT/KT) (MB)    (MI)
HARRISON CRIB    1540            33  330/  9/ 10   N/A
BURNHAM HARBOR   1600            34  230/  2/  9   N/A
CALUMET HARBOR   1548            33  150/  1/  3 1026.9S
BURNS HARBOR     1540            35  310/  5/  7 1027.4F
MICHIGAN CITY    1540            35  250/  4/  7   N/A
$$

ABBREVIATIONS USED IN REMARKS
   TC - TEMPERATURE IN CELSIUS
  WCI - WIND CHILL INDEX
   HX - HEAT INDEX
  VSB - VISIBILITY
$$



USA.gov is the U.S. government's official web portal to all federal, state and local government web resources and services.